FENGYUN 1C DEB, 31208

Orbit data source: Space-Track

FENGYUN 1C DEB, 31208 is space debris in SSO originally from a launch on Mon, 10 May 1999 UTC launched from the Taiyaun Space Center, China (TSC). Fengyun 1C debris stems from the Chinese weather satellite Fengyun-1C, which was intentionally destroyed by a Chinese anti-satellite missile in 2007. This event dramatically increased the amount of space debris, with thousands of trackable fragments posing hazards to satellites and human spaceflight. The Fengyun 1C debris cloud has become a focal point in discussions about space sustainability and the need for international regulations to prevent the creation of new debris.

Loading next visibility...
Identifier
31208, 1999-025BKN
Orbit
SSO
Country
Flag of CNCN / PRC
Related business
Manufacturer
Unknown
Mission
Spacecraft
Bus & Motor
Unknown
Mass
Unknown
Launch date (UTC)
1999-05-10 (27 years ago)
Launch vehicle
Unknown
Launch site
Taiyaun Space Center, China (TSC)
Object type
Payload
Rocket body
Debris
Shape & HBR
Unknown shape, 0.1 m
Radar Cross Section
Small (<0.1 m²)

Expand to show TLE details & history
Last TLE update: 23 hours ago

TLE from 23 hours ago
0 FENGYUN 1C DEB
1 31208U 99025BKN 26123.40171134  .00013679  00000-0  24954-2 0  9996
2 31208  99.2490 289.2982 0014341 191.5900 199.0308 14.66063428725528
Epoch: 2026-05-03T09:38Z
TLE epoch observation values (Epoch: 2026-05-03T09:38:27.859Z)
Latitude
30.18226°
Longitude
-82.02889°
Altitude
687.035 km
Speed
7.511 km/s
True Right ascension
18h 55m 34s
True Declination
30° 01' 54"
Sunlit
Object was in daylight at epoch
Visualization orbit readout
Latitude
Unknown
Longitude
Unknown
Altitude
Unknown
Speed
Unknown
Apparent Right ascension
Unknown
Apparent Declination
Unknown
Sunlit
N/A
Visualization observer readout
Local Sidereal Time
16:39:33
Azimuth
Unknown
Elevation
Unknown
Doppler factor
Unknown
Orbital elements
Apogee altitude
680.897 km
Perigee altitude
660.679 km
Semi-major axis
7,048.925 km
Eccentricity
0.00143
Inclination
99.249°
RAAN
289.2982°
Arg. of periapsis
191.59°
True anomaly
198.9773°
Mean anomaly
199.0308°
Eccentric anomaly
199.00404°
Mean motion
3.6674 °/min
Orbital period
98.16 mins
BSTAR
0.0024954
Loading maneuver chart data...
Computing Atmospheric mass density...
Loading historical data...
Loading historical data...
Loading historical data...
Loading historical data...
Loading historical data...
Loading historical data...
Loading historical data...

Documentation

Showing up to 5 results
|